Location: Newark
(52.3500°N, 175.9667°E)
Time: 22:07:13
(UTC+00:00)

Altair - Pass Details

Date: 25 April 2021
Orbit: 1501 x 1683 km, 47.2° (Epoch: 05 May)

Event Time Altitude Azimuth Distance (km) Brightness Sun altitude
Rises 18:45:16 0° 255° (WSW) 4,881 9.5 15.4°
Reaches altitude 10° 18:48:29 10° 253° (WSW) 3,874 9.1 15.8°
Maximum altitude 18:58:11 65° 175° (S) 1,723 8.1 17.3°
Drops below altitude 10° 19:07:30 10° 96° (E) 3,732 12.0 18.8°
Sets 19:10:32 0° 94° (E) 4,694 11.7 19.2°
